Regional Weather Roundup
Issued by NWS

Home | Current Version | Previous Version | Text Only | Print | Product List | Glossary Off
Versions: 1 2 3 4 5 6 7 8 9 10 11 12 13 14 15 16 17 18 19 20 21 22 23 24 25 26 27 28 29 30 31 32 33 34 35 36 37 38 39 40 41 42 43 44 45 46 47 48 49 50

000
ASUS45 KCYS 300210
RWRWY

WYOMING REGIONAL WEATHER ROUNDUP
NATIONAL WEATHER SERVICE CHEYENNE WY
800 PM MDT MON JUN 29 2015

NOTE:  "FAIR" INDICATES FEW OR NO CLOUDS BELOW 12,000 FEET
WITH NO SIGNIFICANT WEATHER AND/OR OBSTRUCTIONS TO VISIBILITY.

WYZ001-300300-
YELLOWSTONE NATIONAL PARK

CITY           SKY/WX    TMP DP  RH WIND       PRES   REMARKS
LK YELLOWSTONE   N/A     65  46  50 NW10G21   30.39R
W YELLOWSTONE  NOT AVBL

$$
WYZ002>013-054>058-071-098>099-300300-
NORTHERN WYOMING

CITY           SKY/WX    TMP DP  RH WIND       PRES   REMARKS
JACKSON        FAIR      79  57  47 CALM      30.21R
CODY           FAIR      88  43  20 SE6       30.11R
GREYBULL       FAIR      93  36  13 S6        30.00R
WORLAND        FAIR      86  48  26 S3        30.03S
SHERIDAN       FAIR      78  65  63 SW6       30.05S
BUFFALO        FAIR      81  54  39 W3        30.15S
GILLETTE       FAIR      82  57  42 SE6       30.10R
HULETT         FAIR      81  54  39 SW3       30.10S
NEWCASTLE      FAIR      73  57  56 SE7       30.11R

$$
WYZ014>020-022>026-101>103-300300-
CENTRAL WYOMING

CITY           SKY/WX    TMP DP  RH WIND       PRES   REMARKS
BIG PINEY      FAIR      78  56  46 W3        30.28S
PINEDALE       FAIR      81  43  26 SW7       30.29S
DUBOIS         FAIR      75  39  27 SE9       30.29S
LANDER         FAIR      81  49  32 SW3       30.15S
RIVERTON       FAIR      85  40  20 N3        30.16S
CASPER         FAIR      84  38  19 NE8       30.18R
DOUGLAS        FAIR      82  47  29 NE6       30.16S

$$
WYZ021-027>030-104>119-300300-
SOUTHERN WYOMING

CITY           SKY/WX    TMP DP  RH WIND       PRES   REMARKS
EVANSTON       FAIR      83  44  25 CALM      30.27S
KEMMERER       FAIR      82  37  20 E5        30.30S
FORT BRIDGER   MOCLDY    88  36  15 E8        30.29S
ROCK SPRINGS   FAIR      82  39  21 E7        30.26R
DIXON          FAIR      82  37  20 NE8       30.26S
RAWLINS        FAIR      80  35  19 E9        30.29S
SARATOGA       FAIR      79  39  24 NE8       30.31S
LARAMIE        FAIR      73  48  41 NE9       30.34R
CHEYENNE       FAIR      79  41  25 NE6       30.25S
TORRINGTON     FAIR      82  53  36 E14       30.09R
PINE BLUFFS    FAIR      81  45  28 NE5       30.18S

$$


USA.gov is the U.S. government's official web portal to all federal, state and local government web resources and services.